Hlavní strana
METAR-TAF:

METAR-TAF

Letiště :

Lincolnton-Lincoln County Regional Airport

Lincolnton, Severní Karolína, Spojené státy americké

zeměpisná šířka: 35-28-59N, zeměpisná délka: 081-09-41W, výška: 267 m

Aktuální stav počasí

Zpráva byla vytvořena před 58 minutami, v 21:55 UTC
Západní vítr 6 kt
Teplota 10°C
Vlhkost vzduchu 53%
Tlak 1003 hPa
Viditelnost: 16.1 km
Zataženo ve výšce 6000 ft

METAR: KIPJ 302155Z AUTO 27006KT 10SM OVC060 10/01 A2962 RMK AO2 T00970005

Čas: 17:53 (22:53 UTC)


TAF: chybějící

Stav a předpovědi počasí z více než 4 000 letišť (zprávy METAR a TAF).

Červené a žluté tečky na mapě představují dostupné meteorologické stanice.

Když kurzor umístíte na tečku, zobrazí se název stanice.

Pak kliknutím zobrazíte stav a předpověď počasí.

Chcete-li změnit mapu, kliknutím na zelené tlačítko se znaménkem +mapu přiblížíte, kliknutím na zelené tlačítko se znaménkem – mapu oddálíte a kliknutím na zelené šipky přejdete na sousední mapy.


METAR-TAF: